This is the latest recevied weather packets stored in our database for station/object N6GPM. If no packets are shown the sender has not sent any weather packets the latest 10 day(s).
| Time | Temp. | Humidity | Pressure | Rain* | Wind** | Luminosity | Snow |
|---|---|---|---|---|---|---|---|
| 1788232100 | 22.78° C | 44% | 1017.6 hPa | 0 mm | - | 0 W/m² | - |
| 1788231801 | 23.33° C | 43% | 1017.5 hPa | 0 mm | - | 0 W/m² | - |
| 1788231494 | 23.33° C | 43% | 1017.5 hPa | 0 mm | - | 0 W/m² | - |
| 1788231189 | 23.33° C | 43% | 1017.3 hPa | 0 mm | - | 0 W/m² | - |
| 1788230884 | 23.33° C | 43% | 1017 hPa | 0 mm | - | 0 W/m² | - |
| 1788230583 | 23.89° C | 43% | 1017 hPa | 0 mm | - | 0 W/m² | - |
| 1788230281 | 23.89° C | 42% | 1016.8 hPa | 0 mm | - | 0 W/m² | - |
| 1788229976 | 23.89° C | 41% | 1016.7 hPa | 0 mm | - | 0 W/m² | - |
| 1788229672 | 24.44° C | 42% | 1016.7 hPa | 0 mm | - | 1 W/m² | - |
| 1788229368 | 24.44° C | 43% | 1016.7 hPa | 0 mm | - | 2 W/m² | - |
| 1788229062 | 24.44° C | 43% | 1016.7 hPa | 0 mm | - | 4 W/m² | - |
| 1788228758 | 25° C | 44% | 1016.6 hPa | 0 mm | - | 9 W/m² | - |
| 1788228453 | 25° C | 45% | 1016.5 hPa | 0 mm | - | 14 W/m² | - |
| 1788228149 | 25.56° C | 45% | 1016.6 hPa | 0 mm | - | 17 W/m² | - |
| 1788227849 | 25.56° C | 45% | 1016.5 hPa | 0 mm | - | 23 W/m² | - |
| 1788227545 | 26.11° C | 44% | 1016.1 hPa | 0 mm | - | 29 W/m² | - |
| 1788227239 | 26.11° C | 44% | 1016.2 hPa | 0 mm | - | 35 W/m² | - |
| 1788226935 | 26.11° C | 43% | 1016.3 hPa | 0 mm | - | 41 W/m² | - |
| 1788226630 | 26.67° C | 43% | 1016.3 hPa | 0 mm | - | 49 W/m² | - |
| 1788226326 | 26.67° C | 45% | 1016.4 hPa | 0 mm | - | 57 W/m² | - |
| 1788226021 | 26.67° C | 43% | 1016.3 hPa | 0 mm | - | 67 W/m² | - |
| 1788225716 | 26.67° C | 43% | 1016.6 hPa | 0 mm | - | 76 W/m² | - |
| 1788225412 | 27.22° C | 43% | 1016.5 hPa | 0 mm | - | 87 W/m² | - |
| 1788225110 | 27.78° C | 43% | 1016.2 hPa | 0 mm | - | 100 W/m² | - |
| 1788224800 | 28.33° C | 42% | 1016.4 hPa | 0 mm | - | 117 W/m² | - |
* Rain latest hour (hover to see other rain measurements)
** Current wind speed in m/s (hover to see current wind gust speed)